User: anonymous   Login
Location: Unspecified
(0.0000°N, 0.0000°E)
Time: 00:24:50
(UTC+00:00)
Language:

Nadezhda 2 - Orbit

View from above orbital plane
View from above orbital plane
View from above satellite
View from above satellite

Ground track
Ground track

The orbit data is extracted from the following two-line orbital elements,

1 20508U 90017A   21023.59198042  .00000014  00000-0 -15737-5 0  9992
2 20508  82.9552  89.6124 0044536 171.2757 297.1623 13.74297781549692
Epoch (UTC): 23 January 2021 14:12:27
Eccentricity: 0.0044536
inclination: 82.9552°
perigee height: 951 km
apogee height: 1017 km
right ascension of ascending node: 89.6124°
argument of perigee: 171.2757°
revolutions per day: 13.74297781
mean anomaly at epoch: 297.1623°
orbit number at epoch: 54969

The dashed part of the orbit path shows where the satellite is in the earth's shadow,  

DLR